FW3932 Weather Reports


time (UTC)temp
F
wind
direction
speed
knots
gust
knots
rain 1hr
in
rain 24hr
in
rain mn
in
humidity
%
barometer
mb
20260506191004 68 317 2.6 5.2 0.00 0.00 0.00 61 1020.2
20260506190507 68 335 0.9 7.0 0.00 0.00 0.00 63 1020.2
20260506190011 68 261 0.9 7.0 0.00 0.00 0.00 61 1020.2
20260506185505 70 298 0.9 7.0 0.00 0.00 0.00 62 1020.2
20260506185007 68 300 0.9 6.1 0.00 0.00 0.00 67 1020.1
20260506184508 67 158 1.7 6.1 0.00 0.00 0.00 66 1020.1
20260506184003 66 181 0.9 5.2 0.00 0.00 0.00 67 1020.3
20260506183505 66 213 0.9 2.6 0.00 0.00 0.00 66 1020.3
20260506183008 65 188 0.9 3.5 0.00 0.00 0.00 68 1020.3
20260506182504 65 28 0.0 6.1 0.00 0.00 0.00 65 1020.3
20260506182005 66 321 2.6 6.1 0.00 0.00 0.00 65 1020.4
20260506181524 65 351 0.0 3.5 0.00 0.00 0.00 69 1020.4
20260506181006 64 305 0.0 4.3 0.00 0.00 0.00 68 1020.3
20260506180502 64 175 1.7 6.1 0.00 0.00 0.00 69 1020.3
20260506180026 65 9 1.7 7.0 0.00 0.00 0.00 66 1020.3
20260506175507 66 300 1.7 7.0 0.00 0.00 0.00 68 1020.3
20260506175003 65 322 2.6 6.1 0.00 0.00 0.00 68 1020.3
20260506174520 65 312 1.7 6.1 0.00 0.00 0.00 69 1020.3
20260506174004 64 352 0.9 4.3 0.00 0.00 0.00 71 1020.4
20260506173512 64 319 0.9 4.3 0.00 0.00 0.00 71 1020.4
20260506173018 64 161 0.9 6.1 0.00 0.00 0.00 70 1020.4
20260506172503 63 293 3.5 6.1 0.00 0.00 0.00 69 1020.4
20260506172009 63 355 0.9 5.2 0.00 0.00 0.00 72 1020.4
20260506171511 62 162 0.0 3.5 0.00 0.00 0.00 75 1020.5
20260506171004 62 281 0.9 4.3 0.00 0.00 0.00 74 1020.5
20260506170509 62 5 1.7 6.1 0.00 0.00 0.00 74 1020.5
20260506170016 61 329 1.7 6.1 0.00 0.00 0.00 72 1020.4
20260506165504 61 330 0.9 7.0 0.00 0.00 0.00 73 1020.5
20260506165007 61 360 1.7 7.0 0.00 0.00 0.00 74 1020.4
20260506164512 61 323 2.6 7.0 0.00 0.00 0.00 74 1020.5
20260506164005 60 297 2.6 6.1 0.00 0.00 0.00 75 1020.5
20260506163504 60 321 2.6 6.1 0.00 0.00 0.00 77 1020.5
20260506163008 59 112 0.9 2.6 0.00 0.00 0.00 78 1020.5
20260506162507 59 200 0.0 1.7 0.00 0.00 0.00 80 1020.6
20260506162008 58 200 0.0 2.6 0.00 0.00 0.00 80 1020.6
20260506161520 58 298 0.0 2.6 0.00 0.00 0.00 78 1020.6
20260506161010 58 251 0.0 1.7 0.00 0.00 0.00 80 1020.7
20260506160508 57 135 0.0 1.7 0.00 0.00 0.00 80 1020.7
20260506160017 57 135 0.0 1.7 0.00 0.00 0.00 81 1020.6
20260506155504 57 342 0.0 3.5 0.00 0.00 0.00 81 1020.7
20260506155015 57 342 0.9 3.5 0.00 0.00 0.00 81 1020.7
20260506154513 57 323 0.9 2.6 0.00 0.00 0.00 82 1020.7
20260506154004 56 323 0.9 2.6 0.00 0.00 0.00 81 1020.7
20260506153506 56 323 0.0 3.5 0.00 0.00 0.00 81 1020.7
20260506153022 56 323 0.9 3.5 0.00 0.00 0.00 81 1020.8
20260506152504 56 331 0.9 2.6 0.00 0.00 0.00 82 1020.8
20260506152007 56 9 0.0 2.6 0.00 0.00 0.00 83 1020.8
20260506151523 55 9 0.0 2.6 0.00 0.00 0.00 83 1020.7
20260506151004 55 311 0.9 2.6 0.00 0.00 0.00 82 1020.7
20260506150505 55 329 0.0 2.6 0.00 0.00 0.00 83 1020.7
20260506150018 55 355 0.9 4.3 0.00 0.00 0.00 83 1020.6
20260506145510 55 304 0.9 4.3 0.00 0.00 0.00 82 1020.5
20260506145004 55 282 1.7 4.3 0.00 0.00 0.00 83 1020.6
20260506144512 55 274 0.9 3.5 0.00 0.00 0.00 83 1020.7
20260506144010 55 304 0.9 2.6 0.00 0.00 0.00 83 1020.6
20260506143504 55 283 0.9 3.5 0.00 0.00 0.00 83 1020.6
20260506143024 55 323 0.9 3.5 0.00 0.00 0.00 83 1020.6
20260506142511 55 317 1.7 3.5 0.00 0.00 0.00 83 1020.5
20260506142007 55 290 0.9 3.5 0.00 0.00 0.00 83 1020.5
20260506141515 55 296 0.0 3.5 0.00 0.00 0.00 83 1020.5
20260506141011 54 344 0.9 3.5 0.00 0.00 0.00 83 1020.4
20260506140504 54 288 0.9 3.5 0.00 0.00 0.00 84 1020.3
20260506140026 54 290 0.0 3.5 0.00 0.00 0.00 85 1020.3
20260506135507 54 308 0.0 2.6 0.00 0.00 0.00 85 1020.2
20260506135009 54 308 0.9 1.7 0.00 0.00 0.00 86 1020.1
20260506134528 53 308 0.0 0.0 0.00 0.00 0.00 86 1020.0
20260506134008 53 308 0.0 0.0 0.00 0.00 0.00 86 1020.1
20260506133507 53 308 0.0 0.0 0.00 0.00 0.00 86 1020.1
20260506133026 53 308 0.0 1.7 0.00 0.00 0.00 86 1020.1
20260506132506 53 308 0.0 1.7 0.00 0.00 0.00 86 1020.1
20260506132008 53 308 0.9 1.7 0.00 0.00 0.00 86 1020.0
20260506131530 53 308 0.0 1.7 0.00 0.00 0.00 86 1019.9
20260506131007 53 308 0.0 0.9 0.00 0.00 0.00 86 1019.9
20260506130507 53 308 0.0 0.9 0.00 0.00 0.00 86 1019.9
20260506130020 53 308 0.0 0.9 0.00 0.00 0.00 86 1019.9
20260506125508 53 308 0.0 0.9 0.00 0.00 0.00 86 1019.7
20260506125009 54 308 0.0 1.7 0.00 0.00 0.00 86 1019.6
20260506124519 54 308 0.0 1.7 0.00 0.00 0.00 85 1019.7
20260506124007 54 308 0.0 1.7 0.00 0.00 0.00 85 1019.7
20260506123507 54 308 0.0 1.7 0.00 0.00 0.00 84 1019.5
20260506123031 54 308 0.0 1.7 0.00 0.00 0.00 84 1019.6
20260506122508 54 308 0.0 1.7 0.00 0.00 0.00 84 1019.5
20260506122007 54 308 0.0 1.7 0.00 0.00 0.00 84 1019.5
20260506121531 54 308 0.0 2.6 0.00 0.00 0.00 84 1019.5
20260506121008 54 308 0.0 2.6 0.00 0.00 0.00 84 1019.5
20260506120511 54 290 0.9 2.6 0.00 0.00 0.00 84 1019.5
20260506120028 54 340 0.0 2.6 0.00 0.00 0.00 84 1019.5
20260506115511 54 340 0.0 2.6 0.00 0.00 0.00 84 1019.5
20260506115007 54 340 0.0 2.6 0.00 0.00 0.00 84 1019.5
20260506114533 54 297 0.9 2.6 0.00 0.00 0.00 84 1019.4
20260506114005 54 322 0.9 2.6 0.00 0.00 0.00 84 1019.4
20260506113504 54 281 0.9 3.5 0.00 0.00 0.00 84 1019.4
20260506113026 54 290 0.0 3.5 0.00 0.00 0.00 84 1019.3
20260506112503 54 326 0.9 3.5 0.00 0.00 0.00 84 1019.3
20260506112003 54 329 0.9 3.5 0.00 0.00 0.00 84 1019.3
20260506111522 54 318 1.7 3.5 0.00 0.00 0.00 84 1019.1
20260506111004 54 296 0.9 2.6 0.00 0.00 0.00 84 1019.1
20260506110504 54 301 0.9 2.6 0.00 0.00 0.00 84 1019.0
20260506110021 54 285 0.9 2.6 0.00 0.00 0.00 84 1019.0
20260506105503 54 302 0.9 3.5 0.00 0.00 0.00 84 1019.0
20260506105005 54 290 0.0 3.5 0.00 0.00 0.00 84 1019.0
20260506104518 54 272 0.9 3.5 0.00 0.00 0.00 83 1019.0
20260506104003 54 286 0.9 2.6 0.00 0.00 0.00 83 1019.0
20260506103504 54 286 0.9 4.3 0.00 0.00 0.00 83 1019.0
20260506103014 54 308 1.7 4.3 0.00 0.00 0.00 83 1019.0
20260506102504 54 276 0.9 4.3 0.00 0.00 0.00 83 1019.0
20260506102002 54 307 0.9 2.6 0.00 0.00 0.00 84 1019.0
20260506101520 54 289 0.9 3.5 0.00 0.00 0.00 84 1018.9
20260506101002 54 282 0.9 3.5 0.00 0.00 0.00 83 1019.0
20260506100503 54 277 0.9 2.6 0.00 0.01 0.00 83 1018.9
20260506100008 54 322 0.9 3.5 0.00 0.01 0.00 83 1019.0
20260506095506 54 267 0.9 3.5 0.00 0.01 0.00 84 1018.9
20260506095004 54 321 0.0 2.6 0.00 0.01 0.00 84 1018.9
20260506094514 54 348 0.0 5.2 0.00 0.01 0.00 83 1018.9
20260506094004 54 315 0.9 5.2 0.00 0.01 0.00 83 1018.8
20260506093503 54 304 0.9 3.5 0.00 0.01 0.00 84 1018.9
20260506093029 54 304 0.9 4.3 0.00 0.01 0.00 84 1018.9
20260506092504 54 298 0.9 4.3 0.00 0.01 0.00 84 1018.9
20260506092005 54 340 1.7 4.3 0.00 0.01 0.00 84 1018.9
20260506091520 54 277 0.9 4.3 0.00 0.01 0.00 84 1018.9
20260506091005 54 328 1.7 3.5 0.00 0.01 0.00 84 1018.9
20260506090504 54 325 0.9 4.3 0.00 0.01 0.00 84 1019.0
20260506090016 54 286 2.6 4.3 0.00 0.01 0.00 85 1018.9
20260506085504 54 306 1.7 6.1 0.00 0.01 0.00 85 1019.0
20260506085003 54 300 2.6 6.1 0.00 0.01 0.00 85 1019.1
20260506084514 53 307 1.7 6.1 0.00 0.01 0.00 86 1019.0
20260506084004 53 15 2.6 7.0 0.00 0.01 0.00 86 1018.9
20260506083508 53 320 1.7 7.0 0.00 0.01 0.00 87 1018.9
20260506083010 52 352 0.9 3.5 0.00 0.01 0.00 89 1019.0
20260506082503 52 341 0.0 0.9 0.00 0.01 0.00 89 1018.9
20260506082011 51 341 0.0 1.7 0.00 0.01 0.00 89 1018.9
20260506081515 51 341 0.0 1.7 0.00 0.02 0.00 89 1018.9
20260506081004 51 341 0.0 0.9 0.00 0.02 0.00 89 1019.0
20260506080506 51 341 0.0 0.9 0.00 0.03 0.00 89 1018.9
20260506073505 51 341 0.0 0.9 0.00 0.06 0.00 88 1018.8
20260506073035 52 341 0.0 0.9 0.00 0.06 0.00 87 1018.8
20260506072507 52 341 0.0 0.9 0.00 0.06 0.00 88 1018.8
20260506072003 52 341 0.0 0.9 0.00 0.06 0.00 87 1018.7
20260506071514 52 341 0.0 0.9 0.00 0.06 0.00 87 1018.6
20260506071008 52 341 0.0 0.9 0.00 0.06 0.00 86 1018.6
20260506070506 52 341 0.0 1.7 0.00 0.07 0.00 86 1018.5
20260506062505 53 341 0.9 3.5 0.00 0.11 0.07 83 1018.2
20260506062006 54 315 0.9 3.5 0.00 0.11 0.07 83 1018.2
20260506061513 54 174 0.0 6.1 0.00 0.11 0.07 83 1018.1
20260506061007 54 315 0.0 6.1 0.00 0.11 0.07 83 1018.1
20260506060504 54 281 0.9 5.2 0.00 0.11 0.07 83 1018.0
20260506051004 55 259 0.0 4.3 0.00 0.12 0.07 82 1017.6
20260506050506 55 284 0.0 9.6 0.00 0.12 0.07 82 1017.6
20260506045008 56 307 0.9 3.5 0.00 0.13 0.07 81 1017.6
20260506044548 56 346 0.9 5.2 0.00 0.13 0.07 81 1017.5
20260506044003 56 275 0.9 5.2 0.00 0.14 0.07 80 1017.4
20260506043506 56 302 0.9 5.2 0.00 0.14 0.07 80 1017.3
20260506043021 56 325 1.7 5.2 0.00 0.14 0.07 80 1017.3
20260506042509 56 307 0.0 4.3 0.00 0.14 0.07 80 1017.2
20260506042007 57 281 0.0 5.2 0.00 0.14 0.07 79 1017.1
20260506041517 57 325 1.7 8.7 0.00 0.14 0.07 79 1017.0
20260506041012 57 265 0.9 8.7 0.00 0.14 0.07 78 1017.0
20260506040505 57 279 0.9 7.0 0.00 0.14 0.07 78 1016.8
20260506040020 57 316 0.9 7.8 0.00 0.14 0.07 78 1016.7
20260506035505 57 292 3.5 7.8 0.00 0.14 0.07 77 1016.7
20260506035006 57 273 1.7 5.2 0.00 0.14 0.07 77 1016.7
20260506034532 57 252 2.6 6.1 0.00 0.14 0.07 77 1016.7
20260506034008 57 296 2.6 7.0 0.00 0.14 0.07 77 1016.6
20260506033505 57 313 1.7 7.0 0.00 0.14 0.07 76 1016.6
20260506033032 58 309 1.7 7.0 0.00 0.14 0.07 77 1016.6
20260506032507 58 261 0.9 7.0 0.00 0.14 0.07 76 1016.5
20260506032010 58 309 0.9 7.8 0.00 0.14 0.07 76 1016.3
20260506031526 58 163 1.7 7.8 0.00 0.14 0.07 76 1016.2
20260506031004 58 285 2.6 7.0 0.00 0.14 0.07 76 1016.3
20260506030505 58 291 2.6 7.0 0.00 0.14 0.07 76 1016.3
20260506030021 58 166 1.7 7.0 0.00 0.14 0.07 76 1016.3
20260506025504 58 333 1.7 9.6 0.00 0.14 0.07 76 1016.2
20260506025004 58 225 1.7 9.6 0.00 0.14 0.07 76 1016.2
20260506024522 58 266 2.6 6.1 0.00 0.14 0.07 76 1016.1
20260506024009 58 239 0.9 7.8 0.00 0.14 0.07 76 1016.1
20260506023511 59 329 1.7 7.8 0.00 0.14 0.07 76 1016.0
20260506023020 59 331 3.5 7.8 0.00 0.14 0.07 75 1016.0
20260506022509 59 264 2.6 7.8 0.00 0.14 0.07 76 1015.9
20260506022011 59 109 0.9 7.0 0.00 0.14 0.07 76 1015.8
20260506021513 59 273 2.6 7.0 0.00 0.14 0.07 75 1015.7
20260506021007 59 290 0.9 7.8 0.00 0.14 0.07 76 1015.7
20260506020508 60 313 1.7 7.8 0.00 0.14 0.07 75 1015.7
20260506020028 60 263 2.6 7.0 0.00 0.14 0.07 74 1015.6
20260506015504 60 315 2.6 7.0 0.00 0.14 0.07 74 1015.6
20260506015008 60 267 0.9 6.1 0.00 0.14 0.07 74 1015.5
20260506014530 60 349 0.0 6.1 0.00 0.14 0.07 75 1015.5
20260506014004 60 32 0.9 7.8 0.00 0.14 0.07 74 1015.4
20260506013506 61 189 1.7 7.8 0.00 0.14 0.07 73 1015.5
20260506013026 61 173 0.9 4.3 0.00 0.14 0.07 74 1015.4
20260506012507 61 287 0.0 5.2 0.00 0.14 0.07 73 1015.4
20260506012007 62 223 0.9 7.0 0.00 0.14 0.07 73 1015.5
20260506011526 62 321 0.9 7.8 0.00 0.14 0.07 73 1015.5
20260506011009 63 272 3.5 7.8 0.00 0.14 0.07 72 1015.5
20260506010504 63 173 1.7 7.8 0.00 0.14 0.07 72 1015.5
20260506010024 62 317 1.7 7.8 0.00 0.14 0.07 73 1015.5
20260506005503 62 178 0.9 3.5 0.00 0.14 0.07 72 1015.4
20260506005010 63 305 0.9 7.0 0.00 0.14 0.07 74 1015.4
20260506004531 63 165 0.9 7.0 0.00 0.14 0.07 72 1015.3
20260506004003 63 308 0.9 5.2 0.00 0.14 0.07 73 1015.4
20260506003503 63 221 0.9 4.3 0.00 0.14 0.07 73 1015.4
20260506003022 63 9 0.9 7.0 0.00 0.14 0.07 71 1015.4
20260506002505 63 178 0.0 7.0 0.00 0.14 0.07 72 1015.3
20260506002003 63 190 0.9 7.0 0.00 0.14 0.07 72 1015.3
20260506001510 63 188 1.7 7.0 0.00 0.14 0.07 74 1015.3
20260506001004 62 160 0.9 8.7 0.00 0.14 0.07 72 1015.3
20260506000503 62 211 1.7 8.7 0.00 0.14 0.07 74 1015.3
20260506000005 62 208 2.6 7.0 0.00 0.14 0.07 74 1015.3
20260505235504 62 177 2.6 5.2 0.00 0.14 0.07 74 1015.3
20260505235004 61 178 0.9 5.2 0.00 0.14 0.07 74 1015.3
20260505234508 61 200 0.9 5.2 0.00 0.14 0.07 75 1015.2
20260505234004 61 184 0.0 4.3 0.00 0.14 0.07 75 1015.4
20260505233505 61 159 0.9 4.3 0.00 0.14 0.07 74 1015.4
20260505233007 62 278 0.0 3.5 0.00 0.14 0.07 76 1015.4
20260505232502 61 208 0.9 5.2 0.00 0.14 0.07 75 1015.4
20260505232003 61 177 1.7 5.2 0.00 0.14 0.07 74 1015.4
20260505231509 61 192 1.7 10.4 0.00 0.14 0.07 75 1015.4
20260505231003 61 184 3.5 10.4 0.00 0.14 0.07 74 1015.4
20260505230503 61 183 4.3 8.7 0.00 0.14 0.07 74 1015.4
20260505230006 61 218 1.7 7.0 0.00 0.14 0.07 75 1015.4
20260505225503 62 230 2.6 6.1 0.00 0.14 0.07 74 1015.4
20260505225004 62 175 0.9 6.1 0.00 0.14 0.07 74 1015.3
20260505224518 62 201 1.7 6.1 0.00 0.14 0.07 74 1015.4
20260505224003 62 199 2.6 6.1 0.00 0.14 0.07 74 1015.4
20260505223505 62 179 0.9 5.2 0.00 0.14 0.07 75 1015.4
20260505223012 62 211 1.7 8.7 0.00 0.14 0.07 74 1015.3
20260505222503 62 157 1.7 8.7 0.00 0.14 0.07 75 1015.4
20260505222003 61 207 1.7 6.1 0.00 0.14 0.07 74 1015.5
20260505221507 61 209 2.6 8.7 0.00 0.14 0.07 75 1015.5
20260505221003 61 189 2.6 8.7 0.00 0.14 0.07 77 1015.6
20260505220508 60 170 0.9 5.2 0.00 0.14 0.07 77 1015.6
20260505220013 61 126 0.0 4.3 0.00 0.14 0.07 75 1015.6
20260505215503 61 184 0.9 5.2 0.00 0.14 0.07 74 1015.7
20260505215007 61 5 1.7 5.2 0.00 0.14 0.07 74 1015.6
20260505214521 61 211 0.0 5.2 0.00 0.14 0.07 76 1015.6
20260505214003 61 176 1.7 5.2 0.00 0.14 0.07 75 1015.6
20260505213503 61 284 0.9 3.5 0.00 0.14 0.07 75 1015.7
20260505213008 61 144 0.9 5.2 0.00 0.14 0.07 77 1015.7
20260505212505 61 105 1.7 8.7 0.00 0.14 0.07 78 1015.8
20260505212005 61 176 2.6 8.7 0.00 0.14 0.07 76 1015.8
20260505211506 62 184 3.5 7.0 0.00 0.14 0.07 76 1015.8
20260505211006 62 202 2.6 6.1 0.00 0.14 0.07 77 1015.8
20260505210504 60 179 1.7 6.1 0.00 0.14 0.07 78 1015.8
20260505210015 60 215 1.7 7.0 0.00 0.14 0.07 79 1015.9
20260505205508 59 158 0.9 7.0 0.00 0.14 0.07 80 1015.9
20260505205006 59 213 1.7 7.0 0.00 0.14 0.07 80 1015.9
20260505204511 58 174 1.7 7.0 0.00 0.14 0.07 80 1016.0
20260505204008 59 205 0.0 3.5 0.00 0.14 0.07 80 1016.0
20260505203504 59 103 0.0 6.1 0.00 0.14 0.07 80 1016.1
20260505203009 59 178 0.0 6.1 0.00 0.14 0.07 79 1016.1
20260505202503 58 282 0.9 4.3 0.00 0.14 0.07 79 1016.0
20260505202010 58 198 0.9 4.3 0.00 0.14 0.07 79 1016.1
20260505201522 58 207 0.9 4.3 0.00 0.14 0.07 80 1016.0
20260505201004 58 209 0.0 4.3 0.00 0.14 0.07 79 1016.1
20260505200504 58 181 0.9 3.5 0.00 0.14 0.07 80 1016.1
20260505200015 58 194 0.9 3.5 0.00 0.14 0.07 79 1016.2
20260505195504 58 253 0.0 4.3 0.00 0.14 0.07 81 1016.2
20260505195005 58 215 0.9 4.3 0.00 0.14 0.07 80 1016.2
20260505194528 58 178 0.9 5.2 0.00 0.14 0.07 79 1016.1
20260505194010 58 243 1.7 5.2 0.00 0.14 0.07 79 1016.1
20260505193504 58 22 0.0 5.2 0.00 0.14 0.07 79 1016.1
20260505193026 59 323 0.9 5.2 0.00 0.14 0.07 78 1016.1
20260505192510 59 333 0.0 6.1 0.00 0.14 0.07 80 1016.0
20260505192003 58 138 1.7 7.0 0.00 0.14 0.07 80 1016.0
20260505191507 58 199 4.3 7.0 0.00 0.14 0.07 79 1016.0